Flag Weather past 2 weeks in Lakewood, Colorado, U.S.A.

Now
38 °F

Passing clouds.


Feels Like: 31 °F
Forecast: 35 / 62 °F
Wind: 9 mph from Southwest

Location: Centennial Airport

Current Time: Oct 31, 2014 at 7:47:32 AM

Latest Report: Oct 31, 2014 at 6:53 AM


Visibility: 10 mi

Pressure: 30.31 "Hg

Humidity: 60%

Dew point: 25 °F

Location of LakewoodLocation

Historic Weather in Lakewood — Graph

°F

Lakewood temperature yesterday

Maximum temperature yesterday: 61 °F (at 2:53 PM)
Minimum temperature yesterday: 34 °F (at 6:53 AM)
Average temperature yesterday: 48 °F

Past Weeks' High & Low Weather Summary

 TemperatureHumidityPressure
High79 °F (Oct 24, 3:53 PM)96% (Oct 27, 3:53 PM)30.40 "Hg (Oct 27, 3:53 PM)
Low33 °F (Oct 28, 3:53 AM)9% (Oct 24, 1:53 PM)29.57 "Hg (Oct 26, 3:53 PM)
Average54 °F45%30.03 "Hg
* Reported Oct 16 6:53 AM — Oct 31 6:53 AM, Lakewood, Weather by CustomWeather, © 2014

Note: Actual official high and low records may vary slightly from our data, if they occured in-between our weather recording intervals... More about our weather records

Advertising

Lakewood weather history for previous 24 hours

 ConditionsComfort  
Time TempWeatherWind HumidityBarometerVisibility
6:53 AM
Oct 31
38 °FPassing clouds.9 mph60%30.31 "Hg10 mi
5:53 AM39 °FClear.No wind57%30.29 "Hg10 mi
4:53 AM40 °FClear.10 mph55%30.28 "Hg10 mi
3:53 AM41 °FClear.9 mph53%30.28 "Hg10 mi
2:53 AM43 °FClear.14 mph49%30.29 "Hg10 mi
1:53 AM43 °FClear.15 mph49%30.32 "Hg10 mi
12:53 AM43 °FClear.12 mph49%30.34 "Hg10 mi
11:53 PM
Oct 30
41 °FClear.8 mph55%30.36 "Hg10 mi
10:53 PM43 °FPassing clouds.14 mph51%30.37 "Hg10 mi
9:53 PM45 °FClear.12 mph49%30.37 "Hg10 mi
8:53 PM47 °FPassing clouds.9 mph46%30.37 "Hg10 mi
7:53 PM46 °FClear.8 mph48%30.40 "Hg10 mi
6:53 PM49 °FPassing clouds.5 mph41%30.38 "Hg10 mi
5:53 PM54 °FPassing clouds.7 mph34%30.32 "Hg10 mi
4:53 PM58 °FPassing clouds.9 mph28%30.29 "Hg10 mi
3:53 PM60 °FPassing clouds.8 mph27%30.26 "Hg10 mi
2:53 PM61 °FPassing clouds.10 mph27%30.25 "Hg10 mi
1:53 PM59 °FPassing clouds.7 mph28%30.24 "Hg10 mi
12:53 PM57 °FPassing clouds.5 mph31%30.28 "Hg10 mi
11:53 AM54 °FPassing clouds.8 mph34%30.34 "Hg10 mi
10:53 AM52 °FPassing clouds.6 mph35%30.35 "Hg10 mi
9:53 AM50 °FPassing clouds.5 mph39%30.34 "Hg10 mi
8:53 AM44 °FPassing clouds.5 mph55%30.35 "Hg10 mi
7:53 AM38 °FPassing clouds.3 mph63%30.33 "Hg10 mi
Weather by CustomWeather, © 2014

See weather overviewHow to use our weather pages